Regional Weather Roundup
Issued by NWS

Home | Current Version | Previous Version | Text Only | Print | Product List | Glossary Off
Versions: 1 2 3 4 5 6 7 8 9 10 11 12 13 14 15 16 17 18 19 20 21 22 23 24 25 26 27 28

000
ASUS45 KCYS 221710
RWRWY

WYOMING REGIONAL WEATHER ROUNDUP
NATIONAL WEATHER SERVICE CHEYENNE WY
1100 AM MDT SUN OCT 22 2017

NOTE:  "FAIR" INDICATES FEW OR NO CLOUDS BELOW 12,000 FEET
WITH NO SIGNIFICANT WEATHER AND/OR OBSTRUCTIONS TO VISIBILITY.

WYZ001-221800-
YELLOWSTONE NATIONAL PARK

CITY           SKY/WX    TMP DP  RH WIND       PRES   REMARKS
LK YELLOWSTONE   N/A     34  33  96 W10G28    30.18F WCI  26
W YELLOWSTONE  NOT AVBL

$$
WYZ002>013-054>058-071-098>099-221800-
NORTHERN WYOMING

CITY           SKY/WX    TMP DP  RH WIND       PRES   REMARKS
JACKSON        CLOUDY    44  33  65 S29G35    30.25S
CODY           FAIR      55  30  38 VRB5G32   30.01R
GREYBULL       FAIR      45  23  42 SE3       30.01F
WORLAND        FAIR      41  25  53 W5        30.01F
SHERIDAN       FAIR      63  29  27 W14G26    29.88S
BUFFALO        FAIR      61  23  23 SE8       29.93F
GILLETTE       FAIR      56  25  30 SW24G36   29.93F
HULETT         FAIR      55  25  30 SW18      29.92F
NEWCASTLE      FAIR      50  21  32 SE9       30.01F

$$
WYZ014>020-022>026-101>103-221800-
CENTRAL WYOMING

CITY           SKY/WX    TMP DP  RH WIND       PRES   REMARKS
BIG PINEY      FAIR      42  25  50 E6        30.31F
PINEDALE       FAIR      45  30  57 W7        30.31F
DUBOIS         FAIR      45  28  53 NW22G36   30.16F
LANDER         FAIR      49  27  42 SE10      30.07F
RIVERTON       FAIR      47  25  42 SE7       30.09F
CASPER         LGT RAIN  49  25  39 SW30G45   30.09F
DOUGLAS        FAIR      58  26  29 W26G37    30.05F

$$
WYZ021-027>030-104>119-221800-
SOUTHERN WYOMING

CITY           SKY/WX    TMP DP  RH WIND       PRES   REMARKS
EVANSTON       FAIR      47  26  44 SW20      30.39R
KEMMERER       FAIR      43  28  56 W23G31    30.35F
FORT BRIDGER   PTSUNNY   52  32  45 W24G31    30.39F
ROCK SPRINGS   FAIR      47  26  44 W23G33    30.34S
DIXON          PTSUNNY   45  23  41 S13G21    30.41F
RAWLINS        PTSUNNY   45  23  42 SW29G39   30.30R
SARATOGA       FAIR      45  28  53 SW17G29   30.35R
LARAMIE        FAIR      51  23  33 W26G41    30.17F
CHEYENNE       FAIR      55  24  30 W31G45    30.16F
TORRINGTON     FAIR      61  23  23 W23G32    30.06S
PINE BLUFFS    FAIR      57  23  26 W28G36    30.14F

$$




USA.gov is the U.S. government's official web portal to all federal, state and local government web resources and services.